STARLINK-5629, 55419

Orbit data source: Space-Track

STARLINK-5629, 55419 is a payload satellite owned by SpaceX/Seattle (US) in LEO that was launched on Tue, 31 Jan 2023 UTC via an FALCON 9 launch vehicle from the Air Force Western Test Range (AFWTR). Payload-class satellites include a variety of spacecraft equipped with specific instruments for various scientific and technological missions. These include communications satellites like Starlink; space stations such as the ISS; scientific satellites like the Hubble; Earth observation satellites from companies like Planet Labs, Umbra, and HawkEye 360; GPS; miniature CubeSats for education and research; and military/defense satellites.

Loading next visibility...
Identifier
55419, 2023-014AE
Orbit
LEO
Country
Flag of USUS
Related business
Manufacturer
SpaceX/Seattle
Mission
Operational Commercial Communications
Bus & Motor
STARLINK, Unknown motor
Mass
305 kg wet, ~290 kg dry
Launch date (UTC)
2023-01-31 (3 years ago)
Launch vehicle
FALCON 9
Launch site
Air Force Western Test Range (AFWTR)
Object type
Payload
Rocket body
Debris
Shape & HBR
Box + 1 Pan, 10.1 m
Radar Cross Section
13.562 m², Large (>1 m²)

Expand to show TLE details & history
Last TLE update: 2 days ago

TLE from 2 days ago
0 STARLINK-5629
1 55419U 23014AE  26171.43216620  .00000113  00000-0  17271-4 0  9992
2 55419  69.9993 185.3374 0003858 264.1264  95.9455 14.98336951186956
Epoch: 2026-06-20T10:22Z
TLE epoch observation values (Epoch: 2026-06-20T10:22:19.159Z)
Latitude
-0.00007°
Longitude
121.11067°
Altitude
574.737 km
Speed
7.574 km/s
True Right ascension
12h 21m 20s
True Declination
0° 00' 00"
Sunlit
Object was in daylight at epoch
Visualization orbit readout
Latitude
Unknown
Longitude
Unknown
Altitude
Unknown
Speed
Unknown
Apparent Right ascension
Unknown
Apparent Declination
Unknown
Sunlit
N/A
Visualization observer readout
Local Sidereal Time
21:23:40
Azimuth
Unknown
Elevation
Unknown
Doppler factor
Unknown
Orbital elements
Apogee altitude
572.663 km
Perigee altitude
567.302 km
Semi-major axis
6,948.12 km
Eccentricity
0.00039
Inclination
69.9993°
RAAN
185.3374°
Arg. of periapsis
264.1264°
True anomaly
95.98947°
Mean anomaly
95.9455°
Eccentric anomaly
95.96748°
Mean motion
3.74751 °/min
Orbital period
96.06 mins
BSTAR
0.000017271
Loading maneuver chart data...
Computing Atmospheric mass density...

Documentation

Showing up to 5 results
|